www.pogodaiklimat.ru

Погода и климат >> Архив погоды >> Пакистан >> Dera Ismail Khan


ПОГОДА в Dera Ismail Khan

  • Прогноз погоды в Dera Ismail Khan
  • Монитор погоды в Dera Ismail Khan
  • Климат города

АРХИВ ПОГОДЫ в Dera Ismail Khan

Время (UTC), дата Ветер
(напр.,м/с)
 
Видим.   Явления Облачность Т
(С)
Тd
(С)
f
(%)
Тe
(С)
Тes
(С)
Комфортность P
(гПа)
Po
(гПа)
Тmin
(С)
Tmax
(С)
R
(мм)
R24
(мм)
S
(см)
09 11.08 ЮВ 1 10 км ясно +38.5 +28.5 57 +60 +79 опасность
перегрева
994.0 994.0
12 11.08 штиль 0 10 км ясно +41.0 +32.0 61 +73 +78 опасность
перегрева
992.0 1000.5 +42.5
15 11.08 штиль 0 4000 м ясно +36.5 +31.3 75 +68 +68 опасность
перегрева
993.2 1000.0
18 11.08 штиль 0 4000 м 10/5 1000 м
[Sc As op]
+32.0 +27.9 79 +52 +52 опасность
перегрева
995.1 996.1
21 11.08 штиль 0 4000 м 10/6 300 м
[Sc As op]
+31.0 +28.3 86 +52 +52 опасность
перегрева
995.0 1000.0
00 12.08 штиль 0 4000 м 5/5 1110 м
[Sc]
+29.0 +26.2 85 +44 +44 опасность
перегрева
994.7 995.7
03 12.08 штиль 0 10 км 10/10 1000 м
[]
+30.0 +25.8 78 +45 +45 опасность
перегрева
995.7 976.7 +28.0
06 12.08 ЮВ 1 10 км 6/6 1110 м
[Sc diur, vesp]
+35.0 +29.7 74 +61 +69 опасность
перегрева
995.8 976.9
09 12.08 ЮВ 1 10 км ясно +38.0 +32.9 75 +76 +95 опасность
перегрева
994.5 995.0
12 12.08 ЮВ 1 10 км ясно +40.0 +30.9 60 +68 +72 опасность
перегрева
992.4 974.1 +41.0
15 12.08 ЮВ 1 4000 м ясно +35.0 +31.1 80 +66 +66 опасность
перегрева
993.5 968.4
18 12.08 ЮЗ 1 4000 м ясно +33.5 +30.9 86 +63 +63 опасность
перегрева
995.0 976.3
21 12.08 З 1 4000 м 5/5 1110 м
[Sc]
+31.5 +29.5 89 +56 +56 опасность
перегрева
995.5 996.0
00 13.08 СВ 1 4000 м 4/4 1110 м
[Sc]
+31.0 +29.7 93 +56 +56 опасность
перегрева
994.5 975.6
03 13.08 В 1 10 км 6/3 1110 м
[Sc As op]
+29.5 +26.0 81 +44 +47 опасность
перегрева
996.8 977.7 +28.5
06 13.08 штиль 0 10 км ясно +35.0 +28.3 68 +56 +81 опасность
перегрева
997.2 978.4
09 13.08 штиль 0 10 км ясно +38.5 +31.4 67 +69 +92 опасность
перегрева
997.3 1000.0
12 13.08 ЮЗ 2 10 км 10/5 1110 м
[Sc As op]
+37.5 +35.6 90 +91 +91 опасность
перегрева
994.2 1006.6 +40.0
15 13.08 СВ 4 4000 м {метель} 10/5 1110 м
[Sc As op]
+26.0 +25.3 96 +38 +38 очень
душно
999.5 1000.0
18 13.08 СВ 3 4000 м 10/5 1110 м
[Sc As op]
+26.0 +24.6 92 +37 +37 очень
душно
1001.4 982.1
21 13.08 СВ 3 4000 м 9/4 1110 м
[Sc As op]
+25.5 +24.1 92 +35 +35 очень
душно
1002.0 979.9
00 14.08 СВ 2 4000 м {дождь} 10/5 1110 м
[Sc As op]
+25.0 +23.5 91 +34 +34 очень
душно
1003.6 984.1 0.0
03 14.08 штиль 0 10 км 10/5 1110 м
[Sc As op]
+26.0 +24.6 92 +37 +37 очень
душно
1004.7 985.3 +23.5
06 14.08 СВ 1 10 км 9/4 1110 м
[Sc As op]
+30.0 +22.8 65 +40 +44 очень
душно
1005.3 986.2
09 14.08 штиль 0 10 км 4/4 1110 м
[Sc]
+32.0 +21.8 55 +41 +54 опасность
перегрева
1004.0 1004.0
12 14.08 штиль 0 10 км 9/4 1110 м
[Sc As op]
+33.5 +23.5 56 +44 +45 опасность
перегрева
1002.6 1009.5 +34.5
15 14.08 штиль 0 4000 м 4/4 1110 м
[Sc]
+31.0 +22.3 60 +40 +40 очень
душно
1003.3 1003.0
18 14.08 штиль 0 4000 м ясно +29.5 +24.5 75 +42 +42 опасность
перегрева
1004.2 985.0
21 14.08 штиль 0 4000 м ясно +29.0 +24.8 78 +41 +41 опасность
перегрева
1004.9 981.5
00 15.08 штиль 0 4000 м ясно +27.0 +22.6 77 +36 +36 очень
душно
1003.4 984.1
03 15.08 штиль 0 10 км ясно +28.5 +22.7 71 +38 +45 очень
душно
1003.8 984.6 +25.0
06 15.08 штиль 0 10 км ясно +34.0 +23.3 54 +45 +69 опасность
перегрева
1003.6 984.7
09 15.08 штиль 0 10 км ясно +37.0 +23.6 46 +47 +70 опасность
перегрева
1001.4 1001.0
12 15.08 ЮВ 1 10 км ясно +36.5 +23.0 46 +46 +51 опасность
перегрева
999.0 1006.4 +37.5
15 15.08 штиль 0 4000 м ясно +34.0 +24.9 59 +47 +47 опасность
перегрева
999.2 1000.0
18 15.08 штиль 0 4000 м ясно +30.5 +24.9 72 +44 +44 опасность
перегрева
999.8 980.8
21 15.08 штиль 0 4000 м ясно +30.0 +25.1 75 +43 +43 опасность
перегрева
999.7 976.9
00 16.08 штиль 0 4000 м ясно +28.5 +24.2 78 +40 +40 очень
душно
998.9 979.8
03 16.08 штиль 0 10 км ясно +29.0 +24.8 78 +41 +48 опасность
перегрева
999.8 980.7 +27.0
06 16.08 ЮВ 1 10 км ясно +35.5 +26.6 60 +52 +73 опасность
перегрева
999.7 980.9
09 16.08 ЮВ 1 10 км ясно +39.0 +34.0 76 +82 +103 опасность
перегрева
998.0 1000.0
12 16.08 штиль 0 10 км ясно +39.5 +37.7 91 +106 +111 опасность
перегрева
995.7 1006.9 +40.5
15 16.08 штиль 0 4000 м ясно +34.5 +33.2 93 +75 +75 опасность
перегрева
996.5 1000.0
18 16.08 штиль 0 4000 м ясно +32.5 +31.9 97 +67 +67 опасность
перегрева
996.5 977.6
21 16.08 штиль 0 4000 м ясно +31.5 +30.8 96 +61 +61 опасность
перегрева
997.0 973.5
00 17.08 ЮВ 1 4000 м ясно +29.0 +28.3 96 +49 +49 опасность
перегрева
996.3 977.3
03 17.08 штиль 0 10 км ясно +31.0 +29.0 89 +54 +61 опасность
перегрева
997.3 978.4 +28.1
06 17.08 штиль 0 10 км ясно +36.0 +34.7 93 +85 +109 опасность
перегрева
997.4 978.8
09 17.08 штиль 0 10 км ясно +40.0 +39.4 97 +121 +143 опасность
перегрева
996.5 1000.0
12 17.08 ЮВ 1 10 км ясно +41.0 +32.6 63 +48 +52 опасность
перегрева
994.3 1004.0 +42.0
15 17.08 ЮВ 1 4000 м ясно +35.5 +24.3 52 +47 +47 опасность
перегрева
995.1 995.0
18 17.08 ЮВ 1 4000 м ясно +33.5 +24.4 59 +46 +46 опасность
перегрева
996.2 977.5
21 17.08 штиль 0 4000 м ясно +32.0 +25.0 67 +46 +46 опасность
перегрева
996.4 1000.0
00 18.08 ЮВ 1 4000 м ясно +29.0 +25.5 81 +43 +43 опасность
перегрева
996.5 977.5
03 18.08 штиль 0 10 км ясно +30.0 +26.5 82 +46 +53 опасность
перегрева
998.5 979.5 +28.0

 

Местоположение метеостанции Dera Ismail Khan (Пакистан): широта 31.82 долгота 70.92 высота над уровнем моря 173 м.

В архиве по умолчанию представлена погода в Dera Ismail Khan за последнюю неделю. Архивные данные за месяц целиком и за предыдущие месяцы, начиная с января 2011 года, Вы можете получить, выбрав интересующий диапазон дат из раскрывающегося списка и нажав кнопку "Ввод!".

Внимание! Время в таблицах - всемирное. Для получения местного времени необходимо прибавить поправку, которая в Dera Ismail Khan равна 5 ч.

Смотрите также архив погоды в соседних городах и на ближайших метеорологических станциях:

Погода в Zhob (Пакистан) (147 км)
Погода в Sargodha (Пакистан) (167 км)
Погода в Multan (Пакистан) (187 км)
Погода в Faisal Abad (Пакистан) (211 км)
Погода в Parachinar (Пакистан) (241 км)
Погода в Barkhan (Пакистан) (244 км)
Погода в Peshawar (Пакистан) (252 км)
Погода в Risalpur (Пакистан) (270 км)
Погода в Bahawalpur (Пакистан) (281 км)
Погода в Islamabad (Пакистан) (286 км)

Пояснения к столбцам:

Ветер - указаны скорость ветра в м/с - средняя за 10 мин, порывы в срок и между сроками (в фигурных скобках) и направление, откуда дует ветер: С - северный, СВ - северо-восточный, В - восточный, ЮВ - юго-восточный, Ю - южный, ЮЗ - юго-западный, З - западный, СЗ - северо-западный.
Видимость - горизонтальная дальность видимости в метрах или километрах. При видимости от 1 до 10 км при отсутствии осадков обычно наблюдается дымка, при ухудшении видимости до 1 км и менее - туман. В сухую погоду видимость может ухудшаться дымом, пылью или мглою.
Явления - указаны атмосферные явления, наблюдавшиеся в срок или в последний час перед сроком; фигурными скобками обозначены явления, наблюдавшиеся между сроками (за 1-3 часа до срока); квадратными скобками обозначены град или гололедные отложения с указанием их диаметра в мм.
Облачность - указаны через наклонную черту общая и нижняя облачность в баллах и высота нижней границы облаков в метрах; квадратными скобками обозначены формы облаков: Ci - перистые, Cs - перисто-слоистые, Cc - перисто-кучевые, Ac - высококучевые, As - высокослоистые, Sc - слоисто-кучевые, Ns - слоисто-дождевые, Cu - кучевые, Cb - кучево-дождевые. Подробнее классификацию облаков см. в Атласе облаков (PDF).
T - Температура воздуха - температура, измеренная на высоте 2 м над землей.
Td - Температура точки росы - температура, при понижении до которой содержащийся в воздухе водяной пар достигнет насыщения.
f - Относительная влажность воздуха - влажноcть воздуха, измеренная на высоте 2 м над землей.
Te - Эффективная температура - температура, которую ощущает одетый по сезону человек в тени. Характеристика душности погоды. При расчете учитывается влияние влажности воздуха и скорости ветра на теплоощущения человека.
Tes - Эффективная температура на солнце - температура, которую ощущает человек, с поправкой на солнечный нагрев. Характеристика знойности погоды. Зависит от высоты солнца над горизонтом, облачности и скорости ветра. Ночью, в пасмурную погоду, а также при ветре 12 м/с и более поправка равна нулю.
P - Атмосферное давление - приведенное к уровню моря атмосферное давление.
Po - Атмосферное давление - измеренное на уровне метеостанции атмосферное давление.
Tmin - Минимальная температура - минимум температуры воздуха на высоте 2 м над землей.
Tmax - Максимальная температура - максимум температуры воздуха на высоте 2 м над землей.
R - Количество осадков - Количество выпавших осадков за период времени, мм. При наведении курсора мыши на число - период времени, за который выпало указанное количество осадков.
R24 - Количество осадков - Количество выпавших осадков за 24 часа, мм.
S - Снежный покров - Высота снежного покрова, см. При наведении курсора мыши на число - состояние снежного покрова и степень покрытия местности в баллах.